Flag for Canada Weather past 2 weeks in Guelph, Ontario, Canada

Now
36 °F

Clear.


Feels Like: 32 °F
Forecast: 36 / 58 °F
Wind: 5 mph from Northwest

Location: Waterloo Well

Current Time: Oct 23, 2014 at 2:58:55 AM

Latest Report: Oct 23, 2014 at 2:00 AM


Visibility: 9 mi

Pressure: 30.23 "Hg

Humidity: 93%

Dew point: 34 °F

Location of GuelphLocation

Historic Weather in Guelph — Graph

°F

Guelph temperature yesterday

Maximum temperature yesterday: 55 °F (at 3:00 PM)
Minimum temperature yesterday: 34 °F (at 8:00 AM)
Average temperature yesterday: 44 °F

Past Weeks' High & Low Weather Summary

 TemperatureHumidityPressure
High72 °F (Oct 14, 11:00 AM)100% (Oct 10, 11:00 PM)30.30 "Hg (Oct 10, 11:00 PM)
Low27 °F (Oct 12, 5:01 AM)44% (Oct 12, 4:00 PM)29.49 "Hg (Oct 17, 3:00 PM)
Average48 °F84%29.93 "Hg
* Reported Oct 8 2:00 AM — Oct 23 2:00 AM, Guelph, Weather by CustomWeather, © 2014

Note: Actual official high and low records may vary slightly from our data, if they occured in-between our weather recording intervals... More about our weather records

Advertising

Guelph weather history for previous 24 hours

 ConditionsComfort  
Time TempWeatherWind HumidityBarometerVisibility
2:00 AM
Oct 23
36 °FClear.5 mph93%30.23 "Hg9 mi
1:00 AM36 °FClear.5 mph93%30.24 "Hg9 mi
12:00 AM39 °FPassing clouds.3 mph87%30.25 "Hg9 mi
11:00 PM
Oct 22
37 °FClear.7 mph93%30.26 "Hg9 mi
10:00 PM41 °FPassing clouds.6 mph87%30.27 "Hg9 mi
9:00 PM43 °FClear.8 mph76%30.27 "Hg9 mi
8:00 PM45 °FClear.7 mph76%30.26 "Hg9 mi
7:00 PM48 °FSunny.6 mph71%30.26 "Hg9 mi
6:00 PM52 °FSunny.6 mph62%30.24 "Hg9 mi
5:00 PM55 °FSunny.10 mph55%30.24 "Hg9 mi
4:00 PM55 °FPartly sunny.12 mph55%30.24 "Hg9 mi
3:00 PM55 °FScattered clouds.10 mph59%30.24 "Hg9 mi
2:00 PM54 °FPartly sunny.9 mph58%30.25 "Hg9 mi
1:00 PM54 °FPassing clouds.9 mph63%30.27 "Hg9 mi
12:00 PM52 °FSunny.9 mph62%30.28 "Hg9 mi
11:00 AM48 °FSunny.9 mph66%30.29 "Hg9 mi
10:00 AM43 °FSunny.10 mph76%30.29 "Hg9 mi
9:00 AM39 °FSunny.10 mph81%30.28 "Hg9 mi
8:00 AM34 °FClear.6 mph93%30.28 "Hg9 mi
7:00 AM36 °FClear.5 mph87%30.25 "Hg9 mi
6:00 AM37 °FClear.7 mph81%30.24 "Hg9 mi
5:00 AM37 °FPassing clouds.10 mph87%30.23 "Hg9 mi
4:56 AM37 °FPassing clouds.8 mph87%30.23 "Hg9 mi
4:00 AM39 °FOvercast.9 mph81%30.21 "Hg9 mi
3:00 AM41 °FOvercast.9 mph81%30.20 "Hg9 mi
2:00 AM41 °FOvercast.7 mph81%30.19 "Hg9 mi
Weather by CustomWeather, © 2014

See weather overviewHow to use our weather pages